When you browse on this site, cookies collect data to enhance your experience and personalize the content and advertising you see.
Visit our Privacy Policy to learn more. By continuing to use the site, you agree to this use of cookies and data.
  • In Hungary
  • List of Countries
  • For 7 days
  • Water Temperature
  • Satellite Maps
  • Weather Map
  • News
  • Weather Widgets
  • user-avatar
    Login

    Hourly Weather Witoldow

    Today, 12 December, Wednesday

    Time Temperature Precipitation Wind Pressure Humidity
    00:00 +1°C° 0.1 mm 2 mps 750 mmHg 94%
    01:00 0°C° 0 mm 3 mps 750 mmHg 91%
    02:00 +1°C° 0.1 mm 2 mps 751 mmHg 90%
    03:00 +1°C° 0.1 mm 2 mps 751 mmHg 89%
    04:00 +1°C° 0.1 mm 2 mps 751 mmHg 88%
    05:00 +1°C° 0 mm 2 mps 752 mmHg 87%
    06:00 0°C° 0 mm 3 mps 752 mmHg 86%
    07:00 0°C° 0 mm 3 mps 753 mmHg 84%
    08:00 0°C° 0 mm 3 mps 753 mmHg 81%
    09:00 0°C° 0 mm 3 mps 754 mmHg 78%
    10:00 +1°C° 0 mm 3 mps 754 mmHg 75%
    11:00 +1°C° 0 mm 3 mps 754 mmHg 73%
    12:00 +1°C° 0 mm 3 mps 754 mmHg 72%
    13:00 +1°C° 0 mm 3 mps 755 mmHg 70%
    14:00 +1°C° 0 mm 3 mps 755 mmHg 74%
    15:00 0°C° 0 mm 3 mps 755 mmHg 79%
    16:00 +1°C° 0 mm 2 mps 755 mmHg 83%
    17:00 -1°C° 0 mm 2 mps 755 mmHg 85%
    18:00 -1°C° 0 mm 2 mps 756 mmHg 87%
    19:00 -1°C° 0 mm 2 mps 756 mmHg 90%
    20:00 -1°C° 0 mm 2 mps 756 mmHg 90%
    21:00 -1°C° 0 mm 2 mps 756 mmHg 90%
    22:00 -1°C° 0 mm 2 mps 756 mmHg 90%
    23:00 -1°C° 0 mm 2 mps 756 mmHg 90%

    Tomorrow, 13 December, Thursday

    Time Temperature Precipitation Wind Pressure Humidity
    00:00 +1°C° 0 mm 1 mps 756 mmHg 90%
    01:00 +1°C° 0 mm 1 mps 756 mmHg 91%
    02:00 -1°C° 0 mm 2 mps 756 mmHg 91%
    03:00 -1°C° 0 mm 2 mps 756 mmHg 91%
    04:00 -1°C° 0 mm 2 mps 756 mmHg 92%
    05:00 -1°C° 0.1 mm 2 mps 756 mmHg 92%
    06:00 -1°C° 0.1 mm 2 mps 756 mmHg 92%
    07:00 -1°C° 0.1 mm 2 mps 756 mmHg 92%
    08:00 -1°C° 0.1 mm 2 mps 756 mmHg 91%
    09:00 -1°C° 0.1 mm 3 mps 756 mmHg 89%
    10:00 0°C° 0.1 mm 3 mps 756 mmHg 88%
    11:00 0°C° 0 mm 3 mps 756 mmHg 86%
    12:00 +1°C° 0 mm 2 mps 756 mmHg 85%
    13:00 +1°C° 0 mm 2 mps 756 mmHg 84%
    14:00 +1°C° 0 mm 2 mps 756 mmHg 84%
    15:00 +1°C° 0 mm 2 mps 756 mmHg 85%
    16:00 -1°C° 0 mm 2 mps 756 mmHg 86%
    17:00 -1°C° 0 mm 2 mps 756 mmHg 87%
    18:00 -1°C° 0 mm 2 mps 756 mmHg 87%
    19:00 -1°C° 0 mm 2 mps 756 mmHg 88%
    20:00 -1°C° 0 mm 2 mps 756 mmHg 88%
    21:00 -1°C° 0 mm 2 mps 756 mmHg 88%
    22:00 +1°C° 0 mm 1 mps 756 mmHg 89%
    23:00 +1°C° 0 mm 1 mps 756 mmHg 88%

    Day after tomorrow, 14 December, Friday

    Time Temperature Precipitation Wind Pressure Humidity
    00:00 +1°C° 0 mm 1 mps 756 mmHg 88%
    01:00 +1°C° 0 mm 1 mps 757 mmHg 88%
    02:00 +1°C° 0 mm 1 mps 757 mmHg 88%
    03:00 -2°C° 0 mm 2 mps 756 mmHg 88%
    04:00 -2°C° 0 mm 2 mps 756 mmHg 88%
    05:00 -2°C° 0 mm 2 mps 757 mmHg 88%
    06:00 -2°C° 0 mm 2 mps 757 mmHg 88%
    07:00 -2°C° 0 mm 2 mps 757 mmHg 88%
    08:00 -2°C° 0 mm 2 mps 757 mmHg 86%
    09:00 -2°C° 0 mm 2 mps 757 mmHg 83%
    10:00 -2°C° 0 mm 2 mps 758 mmHg 81%
    11:00 -1°C° 0 mm 2 mps 758 mmHg 78%
    12:00 -1°C° 0 mm 2 mps 758 mmHg 75%
    13:00 -1°C° 0 mm 2 mps 758 mmHg 73%
    14:00 -1°C° 0 mm 2 mps 758 mmHg 76%
    15:00 -2°C° 0 mm 2 mps 758 mmHg 79%
    16:00 -2°C° 0 mm 2 mps 758 mmHg 83%
    17:00 -3°C° 0 mm 2 mps 758 mmHg 84%
    18:00 -3°C° 0 mm 2 mps 759 mmHg 85%
    19:00 -3°C° 0 mm 2 mps 759 mmHg 86%
    20:00 -3°C° 0 mm 2 mps 759 mmHg 87%
    21:00 -3°C° 0 mm 2 mps 759 mmHg 87%
    22:00 -3°C° 0 mm 2 mps 759 mmHg 88%
    23:00 -3°C° 0 mm 2 mps 759 mmHg 89%

    15 December, Saturday

    Time Temperature Precipitation Wind Pressure Humidity
    00:00 -3°C° 0 mm 2 mps 759 mmHg 90%
    01:00 -3°C° 0 mm 2 mps 759 mmHg 92%
    02:00 -2°C° 0 mm 3 mps 759 mmHg 91%
    03:00 -2°C° 0 mm 3 mps 759 mmHg 91%
    04:00 -2°C° 0 mm 3 mps 759 mmHg 91%
    05:00 -2°C° 0 mm 3 mps 759 mmHg 91%
    06:00 -2°C° 0 mm 3 mps 759 mmHg 91%
    07:00 -2°C° 0 mm 3 mps 760 mmHg 90%
    08:00 -2°C° 0 mm 4 mps 760 mmHg 88%
    09:00 -2°C° 0 mm 4 mps 760 mmHg 86%
    10:00 -2°C° 0 mm 4 mps 760 mmHg 83%
    11:00 -2°C° 0 mm 4 mps 760 mmHg 80%
    12:00 -2°C° 0 mm 4 mps 760 mmHg 76%
    13:00 -2°C° 0 mm 4 mps 760 mmHg 73%
    14:00 -2°C° 0 mm 4 mps 760 mmHg 75%
    15:00 -2°C° 0 mm 4 mps 760 mmHg 77%
    16:00 -2°C° 0 mm 3 mps 760 mmHg 79%
    17:00 -2°C° 0 mm 3 mps 760 mmHg 79%
    18:00 -3°C° 0 mm 4 mps 760 mmHg 79%
    19:00 -3°C° 0 mm 4 mps 760 mmHg 79%
    20:00 -3°C° 0 mm 4 mps 760 mmHg 79%
    21:00 -2°C° 0 mm 3 mps 760 mmHg 79%
    22:00 -2°C° 0 mm 3 mps 760 mmHg 78%
    23:00 -2°C° 0 mm 3 mps 760 mmHg 78%

    16 December, Sunday

    Time Temperature Precipitation Wind Pressure Humidity
    00:00 -2°C° 0 mm 3 mps 759 mmHg 79%
    01:00 -2°C° 0 mm 3 mps 759 mmHg 79%
    02:00 -3°C° 0 mm 4 mps 759 mmHg 80%
    03:00 -3°C° 0 mm 4 mps 758 mmHg 80%
    04:00 -3°C° 0 mm 4 mps 758 mmHg 81%
    05:00 -2°C° 0 mm 3 mps 758 mmHg 82%
    06:00 -2°C° 0 mm 3 mps 758 mmHg 83%
    07:00 -2°C° 0 mm 3 mps 758 mmHg 83%
    08:00 -2°C° 0 mm 3 mps 757 mmHg 83%
    09:00 -2°C° 0 mm 3 mps 757 mmHg 82%
    10:00 -2°C° 0 mm 3 mps 757 mmHg 81%
    11:00 -1°C° 0 mm 3 mps 756 mmHg 80%
    12:00 -1°C° 0 mm 2 mps 756 mmHg 79%
    13:00 -1°C° 0 mm 2 mps 756 mmHg 78%
    14:00 -1°C° 0 mm 2 mps 755 mmHg 80%
    15:00 -2°C° 0 mm 2 mps 755 mmHg 83%
    16:00 -2°C° 0 mm 2 mps 754 mmHg 86%
    17:00 -2°C° 0 mm 2 mps 754 mmHg 86%
    18:00 -3°C° 0 mm 2 mps 754 mmHg 86%
    19:00 -4°C° 0 mm 3 mps 754 mmHg 86%
    20:00 -2°C° 0 mm 3 mps 754 mmHg 84%
    21:00 -2°C° 0 mm 3 mps 754 mmHg 82%
    22:00 -3°C° 0 mm 4 mps 753 mmHg 79%
    23:00 -2°C° 0 mm 4 mps 753 mmHg 78%

    17 December, Monday

    Time Temperature Precipitation Wind Pressure Humidity
    00:00 -2°C° 0 mm 4 mps 753 mmHg 77%
    01:00 -2°C° 0 mm 4 mps 753 mmHg 76%
    02:00 -2°C° 0 mm 4 mps 752 mmHg 74%
    03:00 -2°C° 0 mm 4 mps 752 mmHg 72%
    04:00 -2°C° 0 mm 4 mps 752 mmHg 70%
    05:00 -2°C° 0.1 mm 4 mps 752 mmHg 72%
    06:00 -2°C° 0.1 mm 4 mps 752 mmHg 75%
    07:00 -1°C° 0.1 mm 3 mps 752 mmHg 78%
    08:00 -1°C° 0.1 mm 3 mps 753 mmHg 81%
    09:00 0°C° 0.1 mm 3 mps 753 mmHg 84%
    10:00 0°C° 0.1 mm 3 mps 753 mmHg 87%
    11:00 0°C° 0 mm 3 mps 753 mmHg 88%
    12:00 0°C° 0 mm 3 mps 754 mmHg 89%
    13:00 +1°C° 0 mm 2 mps 754 mmHg 89%
    14:00 +1°C° 0 mm 2 mps 754 mmHg 91%
    15:00 +1°C° 0 mm 2 mps 754 mmHg 93%
    16:00 +1°C° 0 mm 2 mps 754 mmHg 94%
    17:00 +2°C° 0 mm 1 mps 755 mmHg 94%
    18:00 +1°C° 0 mm 1 mps 755 mmHg 95%
    19:00 +1°C° 0 mm 1 mps 755 mmHg 95%
    20:00 +1°C° 0 mm 1 mps 756 mmHg 95%
    21:00 0°C° 0 mm 0 mps 756 mmHg 95%
    22:00 0°C° 0 mm 0 mps 756 mmHg 95%
    23:00 +1°C° 0 mm 1 mps 756 mmHg 95%
    Show more